DLH12A EDDF-EDDM

Flight info

Callsign DLH12A
Flight time 0h 38m
Altitude 21000
Route CINDY8S/18 CINDY Z74 HAREM T104 ROKIL ROKIL1B
Aircraft A20N/M-SDE2E3FGHIRWXY/LB1

Departure

Time 2026-05-06 18:04
Airport Frankfurt Main Airport (EDDF)

Arrival

Time 2026-05-06 18:42
Airport Munich Airport (EDDM)
Time Latitude Longitude Altitude Speed Heading
2026-05-06 17:07 50.04578 8.56629 364 ft 0 kts 114°
2026-05-06 17:07 50.04580 8.56620 363 ft 0 kts 115°
2026-05-06 17:09 50.04578 8.56629 356 ft 0 kts 114°
2026-05-06 17:10 50.04580 8.56620 356 ft 0 kts 115°
2026-05-06 17:50 50.04584 8.56607 365 ft 4 kts 114°
2026-05-06 17:50 50.04595 8.56569 358 ft 4 kts 111°
2026-05-06 17:51 50.04604 8.56529 361 ft 4 kts 102°
2026-05-06 17:51 50.04606 8.56489 360 ft 4 kts 64°
2026-05-06 17:51 50.04600 8.56475 365 ft 1 kts 25°
2026-05-06 17:51 50.04621 8.56476 361 ft 4 kts 344°
2026-05-06 17:52 50.04643 8.56455 357 ft 4 kts 328°
2026-05-06 17:52 50.04661 8.56428 356 ft 4 kts 295°
2026-05-06 17:52 50.04657 8.56394 364 ft 1 kts 249°
2026-05-06 17:52 50.04656 8.56393 364 ft 0 kts 250°
2026-05-06 17:55 50.04653 8.56379 362 ft 3 kts 250°
2026-05-06 17:55 50.04642 8.56331 358 ft 6 kts 250°
2026-05-06 17:56 50.04623 8.56252 361 ft 9 kts 249°
2026-05-06 17:56 50.04597 8.56143 362 ft 12 kts 249°
2026-05-06 17:56 50.04567 8.56019 361 ft 13 kts 250°
2026-05-06 17:56 50.04495 8.55942 362 ft 14 kts 197°
2026-05-06 17:57 50.04396 8.55910 356 ft 16 kts 174°
2026-05-06 17:57 50.04285 8.55961 357 ft 16 kts 164°
2026-05-06 17:57 50.04219 8.55855 359 ft 16 kts 248°
2026-05-06 17:57 50.04177 8.55680 358 ft 18 kts 249°
2026-05-06 17:58 50.04132 8.55495 354 ft 19 kts 250°
2026-05-06 17:58 50.04087 8.55305 355 ft 18 kts 250°
2026-05-06 17:58 50.04043 8.55121 355 ft 19 kts 250°
2026-05-06 17:58 50.03995 8.54917 359 ft 21 kts 249°
2026-05-06 17:59 50.03939 8.54687 354 ft 24 kts 250°
2026-05-06 17:59 50.03877 8.54434 351 ft 26 kts 248°
2026-05-06 17:59 50.03794 8.54199 345 ft 25 kts 249°
2026-05-06 17:59 50.03731 8.53936 348 ft 24 kts 249°
2026-05-06 18:00 50.03670 8.53681 350 ft 26 kts 248°
2026-05-06 18:00 50.03603 8.53412 336 ft 27 kts 250°
2026-05-06 18:00 50.03536 8.53131 337 ft 27 kts 250°
2026-05-06 18:00 50.03483 8.52913 336 ft 19 kts 249°
2026-05-06 18:01 50.03440 8.52759 334 ft 11 kts 249°
2026-05-06 18:01 50.03433 8.52728 331 ft 0 kts 250°
2026-05-06 18:02 50.03431 8.52722 332 ft 2 kts 250°
2026-05-06 18:02 50.03423 8.52684 334 ft 5 kts 250°
2026-05-06 18:02 50.03396 8.52613 332 ft 9 kts 216°
2026-05-06 18:02 50.03326 8.52595 334 ft 10 kts 180°
2026-05-06 18:03 50.03311 8.52594 335 ft 0 kts 181°
2026-05-06 18:03 50.03306 8.52594 335 ft 3 kts 181°
2026-05-06 18:03 50.03106 8.52592 334 ft 61 kts 180°
2026-05-06 18:04 50.02456 8.52594 334 ft 122 kts 179°
2026-05-06 18:04 50.01467 8.52568 489 ft 150 kts 182°
2026-05-06 18:04 50.00433 8.52589 980 ft 156 kts 182°
2026-05-06 18:04 49.99313 8.52605 1492 ft 165 kts 182°
2026-05-06 18:05 49.98158 8.52623 2087 ft 168 kts 180°
2026-05-06 18:05 49.96969 8.53061 2466 ft 188 kts 154°
2026-05-06 18:05 49.95950 8.54464 2884 ft 208 kts 123°
2026-05-06 18:05 49.95214 8.56551 3334 ft 232 kts 119°
2026-05-06 18:06 49.94462 8.58828 4167 ft 241 kts 113°
2026-05-06 18:06 49.94040 8.61356 5153 ft 247 kts 96°
2026-05-06 18:06 49.93948 8.64102 5977 ft 262 kts 94°
2026-05-06 18:06 49.93834 8.67052 6569 ft 282 kts 99°
2026-05-06 18:07 49.93164 8.69903 7434 ft 284 kts 126°
2026-05-06 18:07 49.91789 8.72060 8434 ft 283 kts 145°
2026-05-06 18:07 49.90691 8.73285 9101 ft 285 kts 148°
2026-05-06 18:07 49.90117 8.73890 9450 ft 287 kts 148°
2026-05-06 18:08 49.88568 8.75915 10252 ft 299 kts 135°
2026-05-06 18:08 49.87287 8.78629 10624 ft 326 kts 122°
2026-05-06 18:08 49.86133 8.81791 10769 ft 345 kts 120°
2026-05-06 18:08 49.84962 8.85071 11051 ft 350 kts 120°
2026-05-06 18:09 49.83783 8.88368 11994 ft 349 kts 120°
2026-05-06 18:09 49.82595 8.91660 12911 ft 353 kts 121°
2026-05-06 18:09 49.81383 8.94999 13758 ft 357 kts 121°
2026-05-06 18:09 49.80160 8.98358 14533 ft 361 kts 121°
2026-05-06 18:10 49.78934 9.01720 15308 ft 364 kts 121°
2026-05-06 18:10 49.77683 9.05149 16077 ft 368 kts 121°
2026-05-06 18:10 49.76521 9.08649 16848 ft 372 kts 114°
2026-05-06 18:10 49.75667 9.12444 17591 ft 377 kts 106°
2026-05-06 18:11 49.74949 9.16351 18290 ft 380 kts 112°
2026-05-06 18:11 49.73774 9.20022 18941 ft 381 kts 123°
2026-05-06 18:11 49.72171 9.23288 19600 ft 382 kts 133°
2026-05-06 18:11 49.70399 9.26377 20242 ft 386 kts 133°
2026-05-06 18:12 49.68617 9.29509 20647 ft 389 kts 133°
2026-05-06 18:12 49.66831 9.32662 20780 ft 390 kts 133°
2026-05-06 18:12 49.65074 9.35766 20794 ft 390 kts 133°
2026-05-06 18:12 49.63291 9.38913 20795 ft 389 kts 133°
2026-05-06 18:13 49.61508 9.42056 20795 ft 389 kts 133°
2026-05-06 18:13 49.59721 9.45201 20803 ft 389 kts 133°
2026-05-06 18:13 49.57938 9.48333 20814 ft 389 kts 133°
2026-05-06 18:13 49.56153 9.51465 20806 ft 389 kts 133°
2026-05-06 18:14 49.54366 9.54595 20799 ft 389 kts 133°
2026-05-06 18:14 49.52585 9.57714 20809 ft 388 kts 133°
2026-05-06 18:14 49.50801 9.60833 20811 ft 387 kts 133°
2026-05-06 18:14 49.49045 9.63898 20796 ft 387 kts 133°
2026-05-06 18:15 49.47267 9.66999 20807 ft 386 kts 133°
2026-05-06 18:15 49.45504 9.70069 20801 ft 386 kts 134°
2026-05-06 18:15 49.43714 9.73184 20807 ft 386 kts 134°
2026-05-06 18:15 49.41938 9.76270 20798 ft 386 kts 134°
2026-05-06 18:16 49.40163 9.79352 20802 ft 385 kts 134°
2026-05-06 18:16 49.38388 9.82429 20798 ft 385 kts 134°
2026-05-06 18:16 49.36615 9.85498 20794 ft 384 kts 134°
2026-05-06 18:16 49.34841 9.88560 20808 ft 384 kts 134°
2026-05-06 18:17 49.33096 9.91568 20799 ft 383 kts 134°
2026-05-06 18:17 49.31321 9.94624 20804 ft 383 kts 134°
2026-05-06 18:17 49.29551 9.97668 20800 ft 383 kts 134°
2026-05-06 18:17 49.27775 10.00719 20809 ft 383 kts 134°
2026-05-06 18:18 49.26007 10.03755 20808 ft 383 kts 134°
2026-05-06 18:18 49.24230 10.06801 20800 ft 383 kts 134°
2026-05-06 18:18 49.22457 10.09838 20811 ft 383 kts 134°
2026-05-06 18:18 49.20685 10.12868 20811 ft 382 kts 134°
2026-05-06 18:19 49.18937 10.15856 20816 ft 382 kts 134°
2026-05-06 18:19 49.17169 10.18881 20823 ft 382 kts 134°
2026-05-06 18:19 49.15400 10.21905 20835 ft 381 kts 134°
2026-05-06 18:19 49.13634 10.24917 20840 ft 381 kts 135°
2026-05-06 18:20 49.11830 10.27871 20841 ft 380 kts 136°
2026-05-06 18:20 49.10003 10.30789 20844 ft 380 kts 136°
2026-05-06 18:20 49.08175 10.33698 20848 ft 379 kts 136°
2026-05-06 18:20 49.06353 10.36604 20831 ft 380 kts 136°
2026-05-06 18:21 49.04530 10.39520 20601 ft 380 kts 136°
2026-05-06 18:21 49.02711 10.42434 20339 ft 378 kts 136°
2026-05-06 18:21 49.00930 10.45287 20099 ft 377 kts 136°
2026-05-06 18:21 48.99124 10.48175 19857 ft 376 kts 136°
2026-05-06 18:22 48.97321 10.51051 19607 ft 375 kts 136°
2026-05-06 18:22 48.95519 10.53921 19361 ft 375 kts 136°
2026-05-06 18:22 48.93721 10.56782 19117 ft 374 kts 136°
2026-05-06 18:22 48.91922 10.59642 18870 ft 373 kts 136°
2026-05-06 18:23 48.90130 10.62489 18630 ft 373 kts 136°
2026-05-06 18:23 48.88335 10.65339 18393 ft 373 kts 136°
2026-05-06 18:23 48.86543 10.68179 18153 ft 372 kts 136°
2026-05-06 18:23 48.84751 10.71018 17883 ft 372 kts 136°
2026-05-06 18:24 48.82988 10.73808 17614 ft 370 kts 137°
2026-05-06 18:24 48.81209 10.76620 17346 ft 369 kts 136°
2026-05-06 18:24 48.79434 10.79418 17080 ft 367 kts 137°
2026-05-06 18:24 48.77664 10.82197 16880 ft 365 kts 137°
2026-05-06 18:25 48.75902 10.84959 16836 ft 366 kts 137°
2026-05-06 18:25 48.74128 10.87736 16833 ft 366 kts 137°
2026-05-06 18:25 48.72356 10.90507 16830 ft 366 kts 137°
2026-05-06 18:25 48.70585 10.93277 16829 ft 366 kts 137°
2026-05-06 18:26 48.68811 10.96047 16830 ft 366 kts 137°
2026-05-06 18:26 48.67037 10.98811 16829 ft 366 kts 137°
2026-05-06 18:26 48.65252 11.01565 16824 ft 366 kts 139°
2026-05-06 18:26 48.63356 11.04109 16619 ft 366 kts 141°
2026-05-06 18:27 48.61462 11.06669 16363 ft 363 kts 141°
2026-05-06 18:27 48.59607 11.09165 16108 ft 361 kts 141°
2026-05-06 18:27 48.57727 11.11671 15853 ft 361 kts 141°
2026-05-06 18:27 48.55840 11.14165 15599 ft 360 kts 142°
2026-05-06 18:28 48.53955 11.16645 15346 ft 359 kts 142°
2026-05-06 18:28 48.52076 11.19110 15098 ft 358 kts 142°
2026-05-06 18:28 48.50198 11.21569 14864 ft 357 kts 142°
2026-05-06 18:28 48.48327 11.24017 14619 ft 356 kts 142°
2026-05-06 18:29 48.46459 11.26460 14374 ft 355 kts 142°
2026-05-06 18:29 48.44621 11.28861 14140 ft 354 kts 142°
2026-05-06 18:29 48.42906 11.31519 13886 ft 358 kts 128°
2026-05-06 18:29 48.41857 11.34932 13649 ft 365 kts 107°
2026-05-06 18:30 48.41648 11.38742 13395 ft 370 kts 88°
2026-05-06 18:30 48.41935 11.42585 13183 ft 366 kts 84°
2026-05-06 18:30 48.42305 11.46304 13052 ft 352 kts 83°
2026-05-06 18:30 48.42656 11.49862 12865 ft 334 kts 84°
2026-05-06 18:31 48.42964 11.53239 12584 ft 319 kts 85°
2026-05-06 18:31 48.43241 11.56520 12122 ft 313 kts 85°
2026-05-06 18:31 48.43504 11.59808 11871 ft 319 kts 85°
2026-05-06 18:31 48.43762 11.63107 11616 ft 315 kts 85°
2026-05-06 18:32 48.44014 11.66357 11359 ft 314 kts 85°
2026-05-06 18:32 48.44267 11.69622 11109 ft 312 kts 85°
2026-05-06 18:32 48.44517 11.72868 10885 ft 311 kts 85°
2026-05-06 18:32 48.44765 11.76094 10830 ft 309 kts 85°
2026-05-06 18:33 48.45009 11.79276 10827 ft 311 kts 86°
2026-05-06 18:33 48.45257 11.82523 10772 ft 313 kts 86°
2026-05-06 18:33 48.45505 11.85786 10413 ft 315 kts 86°
2026-05-06 18:33 48.45755 11.89077 9934 ft 317 kts 86°
2026-05-06 18:34 48.46005 11.92388 9424 ft 318 kts 86°
2026-05-06 18:34 48.46255 11.95713 8896 ft 319 kts 85°
2026-05-06 18:34 48.46503 11.99033 8382 ft 317 kts 85°
2026-05-06 18:34 48.46747 12.02301 7884 ft 312 kts 85°
2026-05-06 18:35 48.46987 12.05537 7373 ft 309 kts 85°
2026-05-06 18:35 48.47218 12.08722 6883 ft 303 kts 87°
2026-05-06 18:35 48.46986 12.11794 6397 ft 292 kts 112°
2026-05-06 18:35 48.45950 12.14318 5915 ft 287 kts 139°
2026-05-06 18:36 48.44295 12.15901 5403 ft 281 kts 166°
2026-05-06 18:36 48.42385 12.16193 4915 ft 275 kts 192°
2026-05-06 18:36 48.40658 12.15142 4394 ft 266 kts 223°
2026-05-06 18:36 48.39593 12.13023 4071 ft 246 kts 247°
2026-05-06 18:37 48.39074 12.10701 3999 ft 224 kts 259°
2026-05-06 18:37 48.38804 12.08513 3996 ft 202 kts 263°
2026-05-06 18:37 48.38620 12.06535 4028 ft 178 kts 264°
2026-05-06 18:37 48.38473 12.04806 3993 ft 155 kts 264°
2026-05-06 18:38 48.38344 12.03183 4001 ft 160 kts 264°
2026-05-06 18:38 48.38214 12.01553 3999 ft 156 kts 264°
2026-05-06 18:38 48.38084 11.99905 3875 ft 157 kts 264°
2026-05-06 18:38 48.37958 11.98327 3659 ft 154 kts 264°
2026-05-06 18:39 48.37832 11.96717 3452 ft 155 kts 264°
2026-05-06 18:39 48.37705 11.95111 3245 ft 154 kts 264°
2026-05-06 18:39 48.37584 11.93571 3030 ft 140 kts 264°
2026-05-06 18:40 48.37385 11.91041 2705 ft 111 kts 264°
2026-05-06 18:40 48.37295 11.89878 2555 ft 115 kts 264°
2026-05-06 18:40 48.37201 11.88682 2379 ft 113 kts 264°
2026-05-06 18:40 48.37107 11.87478 2214 ft 119 kts 262°
2026-05-06 18:41 48.37013 11.86261 2053 ft 118 kts 261°
2026-05-06 18:41 48.36921 11.85071 1884 ft 112 kts 261°
2026-05-06 18:41 48.36825 11.83880 1730 ft 119 kts 262°
2026-05-06 18:41 48.36730 11.82673 1590 ft 113 kts 263°
2026-05-06 18:42 48.36640 11.81498 1498 ft 109 kts 263°
2026-05-06 18:42 48.36568 11.80566 1480 ft 53 kts 263°
2026-05-06 18:42 48.36549 11.80319 1485 ft 17 kts 263°
2026-05-06 18:42 48.36529 11.80088 1485 ft 29 kts 263°
2026-05-06 18:43 48.36481 11.79786 1483 ft 31 kts 244°
2026-05-06 18:43 48.36356 11.79508 1479 ft 33 kts 233°
2026-05-06 18:43 48.36220 11.79301 1479 ft 24 kts 193°
2026-05-06 18:43 48.36081 11.79317 1485 ft 15 kts 174°
2026-05-06 18:44 48.36013 11.79328 1478 ft 8 kts 172°
2026-05-06 18:44 48.35960 11.79339 1475 ft 0 kts 172°
2026-05-06 18:44 48.35949 11.79342 1481 ft 3 kts 172°
2026-05-06 18:44 48.35944 11.79343 1485 ft 0 kts 169°
2026-05-06 18:45 48.35941 11.79344 1485 ft 2 kts 166°
2026-05-06 18:45 48.35899 11.79404 1483 ft 9 kts 86°
2026-05-06 18:45 48.35867 11.79512 1483 ft 16 kts 159°
2026-05-06 18:45 48.35750 11.79538 1483 ft 15 kts 174°
2026-05-06 18:46 48.35643 11.79556 1485 ft 12 kts 174°
2026-05-06 18:46 48.35614 11.79642 1485 ft 12 kts 84°
2026-05-06 18:46 48.35618 11.79702 1479 ft 5 kts 83°
2026-05-06 18:46 48.35619 11.79711 1475 ft 0 kts 83°